TimeEDT,TemperatureF,Dew PointF,Humidity,Sea Level PressureIn,VisibilityMPH,Wind Direction,Wind SpeedMPH,Gust SpeedMPH,PrecipitationIn,Events,Conditions,WindDirDegrees,DateUTC
12:15 AM,64.4,55.4,73,29.92,-9999.0,South,10.4,-,N/A,,Clear,180,2013-05-11 04:15:00
12:35 AM,64.4,55.4,73,29.92,-9999.0,South,9.2,-,N/A,,Clear,180,2013-05-11 04:35:00
12:55 AM,64.4,55.4,73,29.92,-9999.0,West,6.9,-,N/A,,Clear,260,2013-05-11 04:55:00
1:15 AM,66.2,55.4,68,29.93,-9999.0,WSW,5.8,-,N/A,,Scattered Clouds,240,2013-05-11 05:15:00
1:35 AM,68.0,57.2,68,29.95,-9999.0,NW,12.7,24.2,N/A,Thunderstorm,Thunderstorm,310,2013-05-11 05:35:00
1:55 AM,66.2,57.2,73,29.94,-9999.0,NNW,9.2,18.4,N/A,,Scattered Clouds,340,2013-05-11 05:55:00
2:15 AM,64.4,57.2,77,29.93,-9999.0,NNW,5.8,-,N/A,,Mostly Cloudy,330,2013-05-11 06:15:00
2:35 AM,64.4,57.2,77,29.94,-9999.0,WNW,8.1,-,N/A,,Overcast,290,2013-05-11 06:35:00
2:55 AM,64.4,59.0,83,29.92,-9999.0,West,8.1,-,0.06,Thunderstorm,Thunderstorm,270,2013-05-11 06:55:00
3:15 AM,62.6,59.0,88,29.95,-9999.0,West,8.1,-,0.05,,Unknown,280,2013-05-11 07:15:00
3:35 AM,62.6,59.0,88,29.93,-9999.0,Calm,Calm,-,0.11,Thunderstorm,Thunderstorm,0,2013-05-11 07:35:00
3:55 AM,62.6,59.0,88,29.91,-9999.0,Calm,Calm,-,0.11,,Unknown,0,2013-05-11 07:55:00
4:15 AM,62.6,59.0,88,29.91,-9999.0,SE,4.6,-,N/A,Thunderstorm,Thunderstorm,140,2013-05-11 08:15:00
4:35 AM,62.6,59.0,88,29.89,-9999.0,SE,9.2,-,N/A,,Unknown,130,2013-05-11 08:35:00
4:55 AM,62.6,59.0,88,29.88,-9999.0,SSE,9.2,-,N/A,,Unknown,150,2013-05-11 08:55:00
5:15 AM,62.6,59.0,88,29.87,-9999.0,SSE,8.1,-,N/A,,Unknown,150,2013-05-11 09:15:00
5:35 AM,62.6,59.0,88,29.88,-9999.0,SSE,12.7,-,N/A,,Unknown,150,2013-05-11 09:35:00
5:55 AM,60.8,57.2,88,29.88,-9999.0,SSE,12.7,-,N/A,,Unknown,150,2013-05-11 09:55:00
6:15 AM,60.8,57.2,88,29.88,-9999.0,SE,13.8,19.6,N/A,,Unknown,140,2013-05-11 10:15:00
6:35 AM,60.8,57.2,88,29.88,-9999.0,SSE,13.8,-,N/A,,Unknown,150,2013-05-11 10:35:00
6:55 AM,60.8,57.2,88,29.89,-9999.0,SSE,15.0,24.2,N/A,,Unknown,160,2013-05-11 10:55:00
7:15 AM,60.8,57.2,88,29.88,-9999.0,South,10.4,-,N/A,,Mostly Cloudy,170,2013-05-11 11:15:00
7:35 AM,62.6,57.2,82,29.88,-9999.0,South,8.1,-,N/A,,Mostly Cloudy,180,2013-05-11 11:35:00
7:55 AM,62.6,59.0,88,29.87,-9999.0,South,9.2,-,N/A,,Unknown,180,2013-05-11 11:55:00
8:15 AM,64.4,60.8,88,29.87,-9999.0,South,9.2,-,N/A,,Unknown,190,2013-05-11 12:15:00
8:35 AM,64.4,60.8,88,29.87,-9999.0,SSW,6.9,-,N/A,,Unknown,200,2013-05-11 12:35:00
8:55 AM,64.4,60.8,88,29.88,-9999.0,SW,8.1,-,N/A,,Overcast,230,2013-05-11 12:55:00
9:15 AM,64.4,60.8,88,29.88,-9999.0,South,5.8,-,0.04,,Unknown,180,2013-05-11 13:15:00
9:35 AM,62.6,59.0,88,29.88,-9999.0,South,10.4,-,0.04,Thunderstorm,Thunderstorm,170,2013-05-11 13:35:00
9:55 AM,62.6,57.2,82,29.84,-9999.0,ESE,4.6,-,0.06,Thunderstorm,Thunderstorm,120,2013-05-11 13:55:00
10:15 AM,62.6,59.0,88,29.86,-9999.0,South,9.2,-,0.02,,Unknown,170,2013-05-11 14:15:00
10:35 AM,62.6,59.0,88,29.88,-9999.0,SSW,11.5,18.4,0.08,,Unknown,210,2013-05-11 14:35:00
10:55 AM,64.4,60.8,88,29.87,-9999.0,SW,13.8,19.6,0.12,,Unknown,230,2013-05-11 14:55:00
11:15 AM,66.2,60.8,83,29.86,-9999.0,SW,11.5,19.6,0.01,,Overcast,220,2013-05-11 15:15:00
11:35 AM,66.2,60.8,83,29.84,-9999.0,SSW,11.5,-,0.03,,Overcast,210,2013-05-11 15:35:00
11:55 AM,66.2,62.6,88,29.85,-9999.0,South,11.5,16.1,0.03,,Unknown,180,2013-05-11 15:55:00
12:15 PM,66.2,62.6,88,29.83,-9999.0,South,11.5,-,N/A,,Mostly Cloudy,180,2013-05-11 16:15:00
12:35 PM,69.8,64.4,83,29.81,-9999.0,South,10.4,16.1,N/A,,Scattered Clouds,190,2013-05-11 16:35:00
12:55 PM,69.8,64.4,83,29.81,-9999.0,South,12.7,19.6,N/A,,Partly Cloudy,190,2013-05-11 16:55:00
1:15 PM,69.8,62.6,78,29.81,-9999.0,South,13.8,-,N/A,,Clear,190,2013-05-11 17:15:00
1:35 PM,71.6,64.4,78,29.81,-9999.0,South,15.0,20.7,N/A,,Clear,190,2013-05-11 17:35:00
1:55 PM,69.8,62.6,78,29.81,-9999.0,South,13.8,20.7,N/A,,Clear,180,2013-05-11 17:55:00
2:15 PM,69.8,62.6,78,29.80,-9999.0,South,15.0,18.4,N/A,,Clear,180,2013-05-11 18:15:00
2:35 PM,69.8,60.8,73,29.80,-9999.0,South,13.8,-,N/A,,Clear,170,2013-05-11 18:35:00
2:55 PM,69.8,60.8,73,29.78,-9999.0,South,12.7,-,N/A,,Partly Cloudy,170,2013-05-11 18:55:00
3:15 PM,69.8,62.6,78,29.78,-9999.0,South,15.0,-,N/A,,Clear,180,2013-05-11 19:15:00
3:35 PM,69.8,62.6,78,29.76,-9999.0,SSE,10.4,-,N/A,,Clear,160,2013-05-11 19:35:00
3:55 PM,69.8,60.8,73,29.76,-9999.0,SSE,11.5,-,N/A,,Scattered Clouds,160,2013-05-11 19:55:00
4:15 PM,66.2,60.8,83,29.76,-9999.0,South,12.7,-,N/A,,Mostly Cloudy,180,2013-05-11 20:15:00
4:35 PM,71.6,62.6,73,29.75,-9999.0,South,15.0,21.9,N/A,,Partly Cloudy,190,2013-05-11 20:35:00
4:55 PM,71.6,62.6,73,29.74,-9999.0,South,12.7,24.2,N/A,,Partly Cloudy,180,2013-05-11 20:55:00
5:15 PM,69.8,62.6,78,29.74,-9999.0,South,15.0,19.6,N/A,,Mostly Cloudy,180,2013-05-11 21:15:00
5:35 PM,69.8,60.8,73,29.74,-9999.0,South,15.0,23.0,N/A,,Mostly Cloudy,190,2013-05-11 21:35:00
5:55 PM,69.8,60.8,73,29.74,-9999.0,South,12.7,21.9,N/A,,Scattered Clouds,180,2013-05-11 21:55:00
6:15 PM,69.8,60.8,73,29.73,-9999.0,South,19.6,23.0,N/A,,Scattered Clouds,170,2013-05-11 22:15:00
6:35 PM,66.2,60.8,83,29.74,-9999.0,South,12.7,-,0.01,,Mostly Cloudy,180,2013-05-11 22:35:00
6:55 PM,66.2,60.8,83,29.74,-9999.0,South,13.8,-,0.01,,Partly Cloudy,190,2013-05-11 22:55:00
7:15 PM,66.2,60.8,83,29.74,-9999.0,South,10.4,23.0,N/A,,Scattered Clouds,190,2013-05-11 23:15:00
7:35 PM,66.2,60.8,83,29.75,-9999.0,South,8.1,-,N/A,,Scattered Clouds,180,2013-05-11 23:35:00
7:55 PM,64.4,60.8,88,29.75,-9999.0,South,9.2,-,N/A,,Unknown,190,2013-05-11 23:55:00
8:15 PM,64.4,60.8,88,29.74,-9999.0,SSW,9.2,-,N/A,,Unknown,200,2013-05-12 00:15:00
8:35 PM,66.2,59.0,78,29.77,-9999.0,NNW,6.9,-,N/A,Thunderstorm,Thunderstorm,340,2013-05-12 00:35:00
8:55 PM,64.4,59.0,83,29.77,-9999.0,NNW,3.5,-,N/A,,Mostly Cloudy,330,2013-05-12 00:55:00
9:15 PM,64.4,57.2,77,29.78,-9999.0,West,4.6,-,N/A,,Scattered Clouds,280,2013-05-12 01:15:00
9:35 PM,64.4,57.2,77,29.77,-9999.0,Calm,Calm,-,N/A,,Mostly Cloudy,0,2013-05-12 01:35:00
9:55 PM,64.4,59.0,83,29.77,-9999.0,Calm,Calm,-,N/A,,Scattered Clouds,0,2013-05-12 01:55:00
10:15 PM,62.6,59.0,88,29.78,-9999.0,SSE,6.9,-,N/A,,Unknown,160,2013-05-12 02:15:00
10:35 PM,62.6,59.0,88,29.77,-9999.0,SSE,3.5,-,N/A,,Mostly Cloudy,150,2013-05-12 02:35:00
10:55 PM,62.6,59.0,88,29.77,-9999.0,South,4.6,-,N/A,,Unknown,170,2013-05-12 02:55:00
11:15 PM,62.6,59.0,88,29.78,-9999.0,West,5.8,-,N/A,,Overcast,270,2013-05-12 03:15:00
11:35 PM,62.6,59.0,88,29.78,-9999.0,WNW,3.5,-,N/A,,Unknown,290,2013-05-12 03:35:00
11:55 PM,62.6,57.2,82,29.76,-9999.0,WSW,4.6,-,N/A,,Scattered Clouds,240,2013-05-12 03:55:00